TimeEST,TemperatureF,Dew PointF,Humidity,Sea Level PressureIn,VisibilityMPH,Wind Direction,Wind SpeedMPH,Gust SpeedMPH,PrecipitationIn,Events,Conditions,WindDirDegrees,DateUTC
12:15 AM,39.2,26.6,61,30.26,10.0,Calm,Calm,-,N/A,,Clear,0,2013-02-01 05:15:00
12:35 AM,41.0,26.6,57,30.26,10.0,Calm,Calm,-,N/A,,Clear,0,2013-02-01 05:35:00
1:15 AM,37.4,26.6,65,30.26,10.0,North,3.5,-,N/A,,Clear,360,2013-02-01 06:15:00
1:35 AM,37.4,24.8,60,30.26,10.0,North,3.5,-,N/A,,Clear,360,2013-02-01 06:35:00
1:55 AM,37.4,24.8,60,30.26,10.0,Calm,Calm,-,N/A,,Clear,0,2013-02-01 06:55:00
2:15 AM,35.6,24.8,65,30.27,10.0,Calm,Calm,-,N/A,,Clear,0,2013-02-01 07:15:00
2:35 AM,35.6,24.8,65,30.27,10.0,NNW,4.6,-,N/A,,Clear,340,2013-02-01 07:35:00
3:15 AM,37.4,24.8,60,30.28,10.0,Calm,Calm,-,N/A,,Clear,0,2013-02-01 08:15:00
3:35 AM,35.6,24.8,65,30.28,10.0,Calm,Calm,-,N/A,,Clear,0,2013-02-01 08:35:00
3:55 AM,35.6,24.8,65,30.27,10.0,Calm,Calm,-,N/A,,Clear,0,2013-02-01 08:55:00
4:15 AM,35.6,24.8,65,30.28,10.0,Calm,Calm,-,N/A,,Clear,0,2013-02-01 09:15:00
4:35 AM,33.8,24.8,70,30.28,10.0,Calm,Calm,-,N/A,,Clear,0,2013-02-01 09:35:00
5:15 AM,33.8,24.8,70,30.28,10.0,Calm,Calm,-,N/A,,Clear,0,2013-02-01 10:15:00
5:35 AM,33.8,24.8,70,30.29,10.0,Calm,Calm,-,N/A,,Clear,0,2013-02-01 10:35:00
5:55 AM,32.0,24.8,75,30.30,10.0,Calm,Calm,-,N/A,,Clear,0,2013-02-01 10:55:00
6:15 AM,30.2,23.0,75,30.31,10.0,Calm,Calm,-,N/A,,Clear,0,2013-02-01 11:15:00
6:35 AM,30.2,23.0,75,30.31,10.0,Calm,Calm,-,N/A,,Clear,0,2013-02-01 11:35:00
6:50 AM,30.2,26.6,86,30.32,10.0,Calm,Calm,-,N/A,,Partly Cloudy,0,2013-02-01 11:50:00
7:50 AM,30.2,26.6,86,30.34,10.0,Calm,Calm,-,N/A,,Clear,0,2013-02-01 12:50:00
8:50 AM,42.8,33.8,70,30.36,10.0,Calm,Calm,-,N/A,,Clear,0,2013-02-01 13:50:00
9:50 AM,51.8,30.2,44,30.38,10.0,NNW,5.8,-,N/A,,Clear,330,2013-02-01 14:50:00
10:50 AM,59.0,26.6,29,30.38,10.0,NNW,11.5,18.4,N/A,,Clear,340,2013-02-01 15:50:00
11:50 AM,62.6,26.6,26,30.36,10.0,NW,5.8,-,N/A,,Clear,320,2013-02-01 16:50:00
1:50 PM,66.2,21.2,18,30.30,10.0,NNW,10.4,-,N/A,,Clear,330,2013-02-01 18:50:00
2:50 PM,66.2,24.8,21,30.28,10.0,NW,5.8,11.5,N/A,,Clear,310,2013-02-01 19:50:00
3:50 PM,64.4,24.8,22,30.27,10.0,WNW,5.8,-,N/A,,Clear,300,2013-02-01 20:50:00
5:50 PM,60.8,33.8,36,30.28,10.0,West,5.8,-,N/A,,Clear,270,2013-02-01 22:50:00
6:50 PM,55.4,33.8,44,30.29,10.0,Calm,Calm,-,N/A,,Clear,0,2013-02-01 23:50:00
7:55 PM,48.2,33.8,58,30.30,10.0,Calm,Calm,-,N/A,,Clear,0,2013-02-02 00:55:00
8:15 PM,48.2,33.8,58,30.30,10.0,NNW,3.5,-,N/A,,Clear,340,2013-02-02 01:15:00
8:35 PM,46.4,33.8,62,30.30,10.0,North,4.6,-,N/A,,Clear,350,2013-02-02 01:35:00
8:55 PM,46.4,33.8,62,30.31,10.0,NNW,3.5,-,N/A,,Clear,340,2013-02-02 01:55:00
9:15 PM,48.2,33.8,58,30.32,10.0,North,3.5,-,N/A,,Clear,10,2013-02-02 02:15:00
9:35 PM,46.4,33.8,62,30.32,10.0,North,-9999.0,-,N/A,,Clear,0,2013-02-02 02:35:00
9:55 PM,46.4,33.8,62,30.32,10.0,North,4.6,-,N/A,,Clear,10,2013-02-02 02:55:00
10:15 PM,44.6,33.8,66,30.32,10.0,North,4.6,-,N/A,,Clear,10,2013-02-02 03:15:00
10:35 PM,44.6,33.8,66,30.32,10.0,North,3.5,-,N/A,,Clear,10,2013-02-02 03:35:00
10:55 PM,42.8,32.0,66,30.32,10.0,Calm,Calm,-,N/A,,Clear,0,2013-02-02 03:55:00
11:15 PM,41.0,30.2,65,30.32,10.0,North,5.8,-,N/A,,Clear,360,2013-02-02 04:15:00
11:35 PM,39.2,30.2,70,30.32,10.0,North,6.9,-,N/A,,Clear,360,2013-02-02 04:35:00
11:55 PM,39.2,30.2,70,30.32,10.0,North,6.9,-,N/A,,Clear,10,2013-02-02 04:55:00